Hayward, WI

10:16 PM CST on November 19, 2017 (GMT -0600)
Sawyer County

Weather History for KHYR - March, 2015

Change the Weather History Date:

Saturday, March 14, 2015

  Actual Average Record
Temperature  
Mean Temperature 42 °F -  
Max Temperature 55 °F 37 °F 69 °F (2012)
Min Temperature 28 °F 16 °F -2 °F (2017)
Degree Days  
Heating Degree Days 22    
Moisture  
Dew Point 31 °F    
Average Humidity 69    
Maximum Humidity 89    
Minimum Humidity 37    
Precipitation  
Precipitation 0.00 in - - ()
Sea Level Pressure  
Sea Level Pressure 30.13 in    
Wind  
Wind Speed 6 mph (NNW)    
Max Wind Speed 13 mph    
Max Gust Speed 20 mph    
Visibility 10 miles    
Events      
Averages and records for this station are not official NWS values.
T = Trace of Precipitation, MM = Missing Value Source: NWS Daily Summary

Daily Weather History Graph

Daily Weather History Graph

Search for Another Location

Airport or City:

Trip Planner

Search our weather history database for the weather conditions in past years. The results will help you decide how hot, cold, wet, or windy it might be!

Date:

Astronomy

Mar. 14, 2015 Rise Set
Actual Time 7:20 AM CDT 7:09 PM CDT
Civil Twilight 6:51 AM CDT 7:39 PM CDT
Nautical Twilight 6:16 AM CDT 8:14 PM CDT
Astronomical Twilight 5:40 AM CDT 8:50 PM CDT
Moon 3:03 AM CDT (3/14) 12:44 PM CDT (3/14)
Length of Visible Light 12h 48m
Length of Day
11h 49m
Last Quarter, 40% of the Moon is Illuminated
Mar 14
Last Quarter
Mar 20
New
Mar 27
First Quarter
Apr 4
Full
Apr 11
Last Quarter

Hourly Weather History & Observations

Time (CDT) Temp. Windchill Dew Point Humidity Pressure Visibility Wind Dir Wind Speed Gust Speed Precip Events Conditions
12:53 AM 39.9 °F - 30.9 °F 70% 30.10 in 10.0 mi North - - N/A   Mostly Cloudy
1:04 AM 39.9 °F 36.7 °F 30.9 °F 70% 30.08 in 10.0 mi Variable 4.6 mph - N/A   Scattered Clouds
1:17 AM 39.9 °F 34.5 °F 30.9 °F 70% 30.09 in 10.0 mi WNW 8.1 mph - N/A   Mostly Cloudy
1:53 AM 39.0 °F 33.4 °F 30.9 °F 73% 30.12 in 10.0 mi NW 8.1 mph - N/A   Overcast
2:53 AM 39.0 °F 34.8 °F 30.9 °F 73% 30.12 in 10.0 mi Variable 5.8 mph - N/A   Overcast
3:53 AM 37.9 °F 32.7 °F 30.9 °F 76% 30.12 in 10.0 mi Variable 6.9 mph - N/A   Overcast
4:53 AM 39.0 °F 35.7 °F 32.0 °F 76% 30.11 in 10.0 mi Variable 4.6 mph - N/A   Overcast
5:53 AM 39.0 °F 36.8 °F 32.0 °F 76% 30.11 in 10.0 mi West 3.5 mph - N/A   Overcast
6:53 AM 37.9 °F 35.5 °F 32.0 °F 79% 30.12 in 10.0 mi WSW 3.5 mph - N/A   Scattered Clouds
7:50 AM 35.6 °F 32.8 °F 32.0 °F 87% 30.10 in 9.0 mi Variable 3.5 mph - N/A   Mostly Cloudy
7:53 AM 36.0 °F 33.3 °F 32.0 °F 86% 30.14 in 9.0 mi WNW 3.5 mph - N/A   Mostly Cloudy
8:06 AM 36.0 °F 31.1 °F 32.0 °F 86% 30.10 in 9.0 mi Variable 5.8 mph - N/A   Overcast
8:53 AM 36.0 °F 31.1 °F 32.0 °F 86% 30.15 in 9.0 mi Variable 5.8 mph - N/A   Overcast
9:53 AM 37.9 °F 35.5 °F 32.0 °F 79% 30.15 in 10.0 mi Variable 3.5 mph - N/A   Overcast
10:13 AM 39.0 °F 34.0 °F 32.0 °F 76% 30.12 in 10.0 mi NW 6.9 mph - N/A   Mostly Cloudy
10:53 AM 42.1 °F 36.1 °F 32.0 °F 67% 30.17 in 10.0 mi NNW 10.4 mph 17.3 mph N/A   Mostly Cloudy
11:04 AM 43.0 °F 38.2 °F 32.0 °F 65% 30.13 in 10.0 mi NNW 8.1 mph 17.3 mph N/A   Scattered Clouds
11:53 AM 45.0 °F 38.9 °F 32.0 °F 60% 30.16 in 10.0 mi NNW 12.7 mph 19.6 mph N/A   Partly Cloudy
12:53 PM 46.9 °F - 32.0 °F 56% 30.16 in 10.0 mi North 9.2 mph 18.4 mph N/A   Clear
1:53 PM 50.0 °F - 32.0 °F 50% 30.14 in 10.0 mi North 8.1 mph - N/A   Clear
2:53 PM 52.0 °F - 32.0 °F 47% 30.12 in 10.0 mi NW 8.1 mph - N/A   Clear
3:53 PM 54.0 °F - 30.9 °F 41% 30.11 in 10.0 mi NW 10.4 mph - N/A   Clear
4:53 PM 55.9 °F - 30.0 °F 37% 30.09 in 10.0 mi North 8.1 mph - N/A   Clear
5:53 PM 55.0 °F - 30.0 °F 38% 30.11 in 10.0 mi Variable 3.5 mph - N/A   Clear
6:53 PM 53.1 °F - 30.0 °F 41% 30.12 in 10.0 mi Calm Calm - N/A   Clear
7:53 PM 39.9 °F - 30.0 °F 68% 30.14 in 10.0 mi Calm Calm - N/A   Clear
8:53 PM 36.0 °F 33.3 °F 28.0 °F 73% 30.15 in 10.0 mi North 3.5 mph - N/A   Clear
9:53 PM 32.0 °F - 27.0 °F 82% 30.15 in 10.0 mi Calm Calm - N/A   Clear
10:53 PM 30.9 °F - 26.1 °F 82% 30.14 in 10.0 mi Calm Calm - N/A   Clear
11:53 PM 28.9 °F 25.2 °F 26.1 °F 89% 30.14 in 10.0 mi North 3.5 mph - N/A   Clear